[[{"header":{"parameterUnit":"m.s-1","parameterCategory":1,"la1":30.2991,"la2":30.254,"lo1":-89.0895,"lo2":-89.0444,"dy":0.0017,"dx":0.0017,"nx":28,"ny":28,"refTime":"2025-07-08T03:00:00:Z","depth":0,"parameterNumber":2,"parameterNumberName":"U-component_of_WINDS"},"data":[0,0,0,0,0,0,0,0,0,0,0,0,0,0,0,0,0,0,0,0,0,0,0,0,0,0,0,0,0,0,0,0,0,0,0,0,0,0,0,0,0,0,0,0,0,0,0,0,0,0,0,0,0,0,0,0,0,0,3.7521,3.7522,0,3.7596,3.7597,3.7598,3.7572,3.757,3.7569,3.7567,3.7645,3.7649,3.7652,0,0,0,0,0,0,0,0,0,0,0,0,0,3.736,3.7363,3.7521,3.7522,3.7523,3.7596,3.7597,3.7598,3.7572,3.757,3.7568,3.7566,3.7644,3.7648,3.7652,0,0,0,0,0,0,0,0,0,0,0,0,0,3.7432,3.7364,3.7521,3.7519,3.752,3.7596,3.7597,3.7598,3.7573,3.757,3.7568,3.7565,3.7642,3.7648,3.7653,3.7736,0,0,3.767,3.7672,0,0,0,0,0,0,0,0,3.7428,3.7438,3.7519,3.752,3.752,3.7572,3.7569,3.7644,3.7573,3.7553,3.7567,3.7564,3.7623,3.763,3.7649,3.7739,3.7743,3.767,3.7673,3.7676,3.7677,0,0,0,0,0,0,0,3.7423,3.7435,3.7551,3.752,3.7521,3.7516,3.7523,3.7583,3.7601,3.7554,3.7553,3.7562,3.7623,3.7644,3.7651,3.7744,3.767,3.7675,3.7678,3.768,3.7909,3.7912,0,0,0,0,0,0,3.7417,3.7431,3.7549,3.7553,3.7467,3.7521,3.7529,3.7558,3.76,3.7604,3.7564,3.756,3.7636,3.7645,3.7653,3.7755,3.7676,3.7681,3.7684,3.7907,3.791,3.7913,0,0,0,0,0,0,3.7414,3.7428,3.7546,3.7492,3.7506,3.7526,3.7559,3.7561,3.7582,3.7607,3.761,3.7582,3.7634,3.7646,3.7716,3.7757,3.7683,3.7688,3.7903,3.7908,3.7912,3.7958,0,0,0,0,0,0,3.7409,3.7427,3.7458,3.7492,3.7509,3.7606,3.7561,3.7564,3.7591,3.7587,3.7625,3.7629,3.7633,3.7708,3.7722,3.7764,3.7692,3.79,3.7905,3.791,3.7953,3.7963,3.7972,0,0,0,0,0,3.7404,3.7467,3.7459,3.7474,3.7548,3.7608,3.7618,3.7621,3.7594,3.7626,3.7643,3.7628,3.7751,3.7716,3.773,3.7775,3.7897,3.7904,3.791,3.7948,3.7961,3.7972,0,0,0,0,0,0,3.7437,3.7472,3.7463,3.754,3.7571,3.7604,3.7644,3.7634,3.7674,3.7669,3.7672,3.7681,3.7754,3.7771,3.7731,3.7859,3.782,3.783,3.7844,3.7857,3.7866,3.7861,3.7697,0,0,0,0,0,3.7453,3.7498,3.7527,3.7592,3.7608,3.7624,3.765,3.765,3.7683,3.7696,3.7718,3.7751,3.7798,3.7828,3.7872,3.7955,3.7965,3.7993,3.8003,3.8011,3.8019,3.8067,3.8081,3.7934,3.7934,3.7934,0,0,3.7487,3.7512,3.754,3.7599,3.7624,3.7672,3.7635,3.7687,3.7724,3.7704,3.7772,3.779,3.7827,3.7905,3.7941,3.7922,3.8062,3.8019,3.8025,3.8029,3.8075,3.8089,3.8102,3.7938,3.7938,3.7937,0,0,3.7573,3.7596,3.7654,3.768,3.7717,3.7727,3.7742,3.7776,3.7787,3.7856,3.7843,3.7887,3.7966,3.7994,3.8019,3.812,3.8108,3.8134,3.8185,3.8232,3.8243,3.8254,3.8291,3.8305,3.8142,3.8143,3.8143,0,3.7611,3.7682,3.7685,3.7739,3.7766,3.7752,3.7811,3.7836,3.7887,3.7907,3.7885,3.7986,3.801,3.8096,3.8121,3.814,3.8158,3.813,3.8241,3.8252,3.8261,3.8298,3.8312,3.8146,3.8145,3.8145,3.8145,0,3.7728,3.7778,3.782,3.787,3.7902,3.7958,3.7971,3.8003,3.8002,3.8015,3.8086,3.8115,3.8166,3.8186,3.8184,3.8272,3.826,3.824,3.8201,3.8278,3.8313,3.8326,3.815,3.8149,3.8148,3.8147,0,0,3.7835,3.7887,3.7903,3.7927,3.7968,3.8008,3.8065,3.8115,3.8144,3.818,3.8229,3.8298,3.828,3.8308,3.831,3.8351,3.8432,3.8326,3.8327,3.8346,3.8533,3.8549,3.8565,3.8424,3.8427,3.8429,3.8531,0,3.7927,3.8026,3.8031,3.8123,3.817,3.8159,3.8209,3.8241,3.8256,3.8299,3.8315,3.8365,3.8337,3.8354,3.8394,3.8413,3.847,3.8406,3.8472,3.8474,3.8463,3.8582,3.8598,3.8692,3.8544,3.8546,3.8548,0,3.8046,3.8086,3.8182,3.822,3.824,3.8285,3.8333,3.8374,3.8411,3.8419,3.8452,3.8448,3.8509,3.8469,3.8553,3.851,3.8538,3.8551,3.8555,3.8562,3.8516,3.8593,3.8722,3.8737,3.8568,3.8567,3.8565,0,3.8117,3.8196,3.8264,3.8284,3.8329,3.8362,3.8382,3.8417,3.8447,3.8489,3.8509,3.8558,3.8585,3.8623,3.8634,3.8603,3.8719,3.8679,3.8729,3.8729,3.8754,3.8752,3.889,3.877,3.877,3.877,3.8769,0,3.8219,3.8279,3.8297,3.8339,3.8406,3.8413,3.8479,3.8498,3.853,3.8576,3.8569,3.8613,3.8624,3.8671,3.868,3.875,3.8762,3.8771,3.8773,3.8773,3.8772,3.8791,3.8785,3.8773,3.8772,3.8772,3.8771,0,3.831,3.8324,3.8398,3.8435,3.8446,3.8495,3.8527,3.8569,3.8583,3.8643,3.8657,3.868,3.8735,3.8749,3.8815,3.8821,3.8905,3.89,3.8892,3.8892,3.8942,3.8938,3.9098,3.912,3.8984,3.8986,3.8987,0,3.8374,3.842,3.8463,3.8493,3.8516,3.8565,3.8596,3.8605,3.8639,3.8686,3.8723,3.8777,3.8821,3.891,3.8933,3.8984,3.8981,3.9034,3.8989,3.8988,3.8984,3.8982,3.8987,3.9043,3.9044,3.9045,3.9046,0,3.8487,3.8493,3.8538,3.8587,3.8625,3.8664,3.8701,3.8727,3.8741,3.878,3.8836,3.887,3.8938,3.8993,3.9045,3.9068,3.9061,3.906,3.9075,3.9075,3.9069,3.9075,3.8917,3.9057,3.9056,3.9055,3.9054,3.9054,3.8568,3.8609,3.8646,3.8698,3.8727,3.8763,3.8804,3.8824,3.8871,3.8927,3.893,3.8992,3.9031,3.91,3.9126,3.9176,3.916,3.918,3.9186,3.9191,3.9196,3.9061,3.9185,3.9185,3.9184,3.9184,3.9184,0,3.8682,3.8706,3.8753,3.8806,3.8848,3.8837,3.8878,3.8914,3.8968,3.9005,3.9049,3.9115,3.9169,3.9198,3.9252,3.9286,3.9284,3.93,3.9298,3.9304,3.9206,3.9189,3.9301,3.9301,3.9301,3.9301,3.9301,3.9301,3.8746,3.8816,3.8827,3.8912,3.8936,3.8996,3.9021,3.9055,3.9084,3.9159,3.9203,3.9221,3.9256,3.9313,3.9362,3.937,3.939,3.9409,3.9414,3.9322,3.931,3.9299,3.9283,3.9413,3.9413,3.9508,3.9508,3.9509]},{"header":{"parameterUnit":"m.s-1","parameterCategory":1,"la1":30.2991,"la2":30.254,"lo1":-89.0895,"lo2":-89.0444,"dy":0.0017,"dx":0.0017,"nx":28,"ny":28,"refTime":"2025-07-08T03:00:00:Z","depth":0,"parameterNumber":3,"parameterNumberName":"V-component_of_WINDS"},"data":[0,0,0,0,0,0,0,0,0,0,0,0,0,0,0,0,0,0,0,0,0,0,0,0,0,0,0,0,0,0,0,0,0,0,0,0,0,0,0,0,0,0,0,0,0,0,0,0,0,0,0,0,0,0,0,0,0,0,-0.8519,-0.852,0,-0.8572,-0.8572,-0.8573,-0.8586,-0.8586,-0.8586,-0.8585,-0.864,-0.8642,-0.8643,0,0,0,0,0,0,0,0,0,0,0,0,0,-0.8434,-0.8435,-0.8519,-0.852,-0.8521,-0.8572,-0.8572,-0.8573,-0.8586,-0.8586,-0.8586,-0.8585,-0.8639,-0.8641,-0.8643,0,0,0,0,0,0,0,0,0,0,0,0,0,-0.8477,-0.8436,-0.8519,-0.8533,-0.8535,-0.8571,-0.8572,-0.8573,-0.8586,-0.8586,-0.8585,-0.8585,-0.8639,-0.8641,-0.8644,-0.867,0,0,-0.8652,-0.8653,0,0,0,0,0,0,0,0,-0.8474,-0.848,-0.8531,-0.8533,-0.8535,-0.8572,-0.8562,-0.8606,-0.8587,-0.8567,-0.8585,-0.8585,-0.8618,-0.8622,-0.8633,-0.8672,-0.8675,-0.8652,-0.8654,-0.8655,-0.8656,0,0,0,0,0,0,0,-0.8471,-0.8478,-0.854,-0.8531,-0.8534,-0.8538,-0.8544,-0.857,-0.8595,-0.8569,-0.857,-0.8576,-0.8619,-0.863,-0.8634,-0.8676,-0.8652,-0.8654,-0.8656,-0.8657,-0.8742,-0.8743,0,0,0,0,0,0,-0.8466,-0.8475,-0.8538,-0.8542,-0.8503,-0.854,-0.8546,-0.856,-0.8594,-0.8599,-0.8576,-0.8576,-0.8626,-0.8631,-0.8636,-0.8671,-0.8655,-0.8657,-0.8659,-0.8741,-0.8742,-0.8743,0,0,0,0,0,0,-0.8464,-0.8471,-0.8536,-0.8509,-0.8517,-0.8542,-0.8558,-0.8562,-0.8573,-0.86,-0.8604,-0.8583,-0.8626,-0.8633,-0.8662,-0.8673,-0.8658,-0.8661,-0.874,-0.8742,-0.8742,-0.8739,0,0,0,0,0,0,-0.8461,-0.847,-0.848,-0.8509,-0.8519,-0.856,-0.8558,-0.8563,-0.8578,-0.8578,-0.8608,-0.8612,-0.8626,-0.8658,-0.8665,-0.8676,-0.8663,-0.874,-0.8741,-0.8742,-0.8738,-0.874,-0.8741,0,0,0,0,0,-0.8458,-0.8476,-0.848,-0.8488,-0.8531,-0.8561,-0.8567,-0.8582,-0.8579,-0.8589,-0.8606,-0.8611,-0.8671,-0.8661,-0.8668,-0.8681,-0.8739,-0.8741,-0.8742,-0.8738,-0.874,-0.8741,0,0,0,0,0,0,-0.8448,-0.848,-0.8485,-0.8513,-0.8534,-0.8563,-0.8576,-0.8583,-0.8605,-0.8605,-0.8623,-0.863,-0.8658,-0.8673,-0.8661,-0.871,-0.8705,-0.8708,-0.8699,-0.8701,-0.8702,-0.8699,-0.8665,0,0,0,0,0,-0.8449,-0.8469,-0.8497,-0.8519,-0.853,-0.8551,-0.8565,-0.8575,-0.8597,-0.8606,-0.8626,-0.8648,-0.8672,-0.8687,-0.871,-0.8741,-0.8748,-0.8753,-0.8755,-0.8756,-0.8758,-0.8778,-0.8781,-0.8748,-0.8748,-0.8748,0,0,-0.8451,-0.8471,-0.8483,-0.8518,-0.8535,-0.8558,-0.8559,-0.8581,-0.8599,-0.861,-0.8639,-0.8654,-0.8681,-0.8711,-0.8726,-0.8724,-0.8769,-0.8758,-0.8758,-0.876,-0.878,-0.8783,-0.8786,-0.8749,-0.8749,-0.8748,0,0,-0.8466,-0.8483,-0.8505,-0.8523,-0.8549,-0.8564,-0.8569,-0.8598,-0.8608,-0.8638,-0.8648,-0.8669,-0.8709,-0.8728,-0.8743,-0.8768,-0.8774,-0.8775,-0.8783,-0.8801,-0.8804,-0.8806,-0.8817,-0.8821,-0.8777,-0.8777,-0.8777,0,-0.8466,-0.8499,-0.8515,-0.8538,-0.8554,-0.8566,-0.8588,-0.8605,-0.8638,-0.8649,-0.8647,-0.8699,-0.8717,-0.8754,-0.876,-0.8771,-0.8779,-0.8772,-0.8802,-0.8805,-0.8807,-0.8818,-0.8822,-0.8777,-0.8777,-0.8777,-0.8777,0,-0.8498,-0.8521,-0.8536,-0.8568,-0.8585,-0.8608,-0.8628,-0.8644,-0.8653,-0.8668,-0.87,-0.8722,-0.8752,-0.8761,-0.8769,-0.8799,-0.8798,-0.8798,-0.8794,-0.881,-0.8821,-0.8825,-0.8778,-0.8778,-0.8778,-0.8778,0,0,-0.8508,-0.855,-0.8555,-0.857,-0.8602,-0.862,-0.8645,-0.8673,-0.8688,-0.871,-0.8732,-0.8767,-0.8769,-0.8786,-0.8797,-0.8813,-0.8835,-0.8813,-0.8814,-0.8817,-0.8871,-0.8871,-0.8875,-0.8839,-0.884,-0.884,-0.887,0,-0.8528,-0.8572,-0.8587,-0.8623,-0.8646,-0.8659,-0.868,-0.8703,-0.8718,-0.874,-0.8757,-0.8783,-0.8782,-0.8793,-0.8809,-0.8828,-0.8846,-0.8826,-0.8861,-0.8862,-0.8855,-0.8881,-0.888,-0.8907,-0.8874,-0.8874,-0.8875,0,-0.8558,-0.8582,-0.862,-0.8651,-0.8661,-0.868,-0.8709,-0.8729,-0.8756,-0.8766,-0.8786,-0.8797,-0.8824,-0.8818,-0.8858,-0.8844,-0.8859,-0.8871,-0.8873,-0.8877,-0.887,-0.8887,-0.8915,-0.892,-0.8881,-0.8881,-0.888,0,-0.8563,-0.8605,-0.8634,-0.8646,-0.8682,-0.8696,-0.8712,-0.8737,-0.8755,-0.878,-0.8792,-0.882,-0.8836,-0.8858,-0.8877,-0.887,-0.8915,-0.891,-0.8926,-0.8925,-0.8935,-0.8934,-0.8967,-0.8943,-0.8943,-0.8943,-0.8943,0,-0.8585,-0.8608,-0.8637,-0.8654,-0.8682,-0.8701,-0.8728,-0.8744,-0.8768,-0.879,-0.8802,-0.8823,-0.8846,-0.8871,-0.8886,-0.8917,-0.8924,-0.8934,-0.8938,-0.8934,-0.8933,-0.8945,-0.8944,-0.8944,-0.8943,-0.8943,-0.8943,0,-0.8595,-0.8615,-0.8647,-0.8679,-0.8688,-0.8707,-0.8735,-0.8754,-0.877,-0.8799,-0.8807,-0.8833,-0.8863,-0.8884,-0.8921,-0.8932,-0.8966,-0.8969,-0.8958,-0.896,-0.8975,-0.8974,-0.9017,-0.9025,-0.8994,-0.8994,-0.8995,0,-0.8608,-0.8626,-0.8661,-0.8677,-0.8693,-0.8718,-0.8736,-0.8756,-0.8774,-0.8807,-0.8822,-0.8853,-0.8878,-0.8926,-0.8949,-0.8979,-0.8983,-0.8997,-0.8988,-0.8984,-0.8986,-0.8985,-0.8988,-0.8998,-0.8998,-0.8998,-0.8999,0,-0.8629,-0.8639,-0.8664,-0.8693,-0.8714,-0.8738,-0.8762,-0.8774,-0.8799,-0.8819,-0.885,-0.887,-0.891,-0.8941,-0.8973,-0.8991,-0.9,-0.9001,-0.9007,-0.9003,-0.8996,-0.9002,-0.8963,-0.9,-0.9,-0.9,-0.9,-0.9,-0.8642,-0.866,-0.8688,-0.8716,-0.8736,-0.8759,-0.8779,-0.8799,-0.8825,-0.8859,-0.8869,-0.8901,-0.893,-0.8975,-0.8993,-0.902,-0.9019,-0.9026,-0.9029,-0.903,-0.9031,-0.8991,-0.9025,-0.9025,-0.9025,-0.9025,-0.9025,0,-0.8666,-0.8685,-0.871,-0.8744,-0.8767,-0.8773,-0.8801,-0.882,-0.8848,-0.8874,-0.8899,-0.8936,-0.8967,-0.8993,-0.9025,-0.9042,-0.9047,-0.905,-0.9049,-0.9054,-0.9029,-0.9022,-0.9045,-0.9045,-0.9045,-0.9045,-0.9045,-0.9045,-0.8681,-0.8712,-0.8725,-0.8768,-0.8787,-0.8819,-0.8834,-0.8856,-0.8877,-0.8918,-0.8943,-0.896,-0.8987,-0.9022,-0.9051,-0.9058,-0.907,-0.9073,-0.9081,-0.9057,-0.9055,-0.9053,-0.9046,-0.9075,-0.9075,-0.9104,-0.9104,-0.9104]}]]